Location: ????
(32.1228°N, 34.8377°E)
Time: 01:00:35
(UTC+00:00)

IDEFIX/ARIANE 42P - Pass Details

Date: 21 September 2020
Orbit: 786 x 802 km, 98.4° (Epoch: 21 October)

Event Time Altitude Azimuth Distance (km) Brightness Sun altitude
Rises 00:51:12 0° 9° (N) 3,316 6.2 -33.1°
Reaches altitude 10° 00:53:33 10° 8° (N) 2,383 5.4 -32.6°
Enters shadow 00:56:03 29° 3° (N) 1,440 4.0 -32.2°
